WZZ17A EGKK-LEBL

Flight info

Callsign WZZ17A
Flight time 1h 52m
Altitude 35000
Route SFD Y47 BENBO UY47 DRAKE L151 SITET UN859 SOPIL/N0443F390 DCT BALAN DCT EVPOK DCT NARAK DCT GAI DCT LOMRA DCT ROCAN DCT PUMAL
Aircraft A20N/M-SDE2E3FGHIRWXY/LB1

Departure

Time 2026-05-04 10:05
Airport London Gatwick Airport (EGKK)

Arrival

Time 2026-05-04 11:57
Airport Josep Tarradellas Barcelona-El Prat Airport (LEBL)
Time Latitude Longitude Altitude Speed Heading
2026-05-04 09:10 51.15892 -0.16774 213 ft 0 kts 206°
2026-05-04 09:11 51.15899 -0.16769 214 ft 0 kts 206°
2026-05-04 09:43 51.15901 -0.16768 203 ft 2 kts 206°
2026-05-04 09:43 51.15924 -0.16750 212 ft 3 kts 206°
2026-05-04 09:44 51.15943 -0.16731 207 ft 4 kts 235°
2026-05-04 09:44 51.15949 -0.16695 203 ft 4 kts 290°
2026-05-04 09:44 51.15934 -0.16662 212 ft 4 kts 334°
2026-05-04 09:46 51.15915 -0.16648 210 ft 0 kts 336°
2026-05-04 09:52 51.15924 -0.16656 207 ft 3 kts 330°
2026-05-04 09:53 51.15949 -0.16696 212 ft 7 kts 301°
2026-05-04 09:53 51.15972 -0.16785 205 ft 11 kts 285°
2026-05-04 09:53 51.15972 -0.16898 205 ft 11 kts 258°
2026-05-04 09:53 51.15926 -0.17021 207 ft 14 kts 223°
2026-05-04 09:54 51.15852 -0.17074 205 ft 12 kts 190°
2026-05-04 09:54 51.15807 -0.17169 203 ft 13 kts 257°
2026-05-04 09:54 51.15785 -0.17325 203 ft 16 kts 258°
2026-05-04 09:54 51.15760 -0.17512 213 ft 17 kts 257°
2026-05-04 09:55 51.15742 -0.17640 203 ft 8 kts 257°
2026-05-04 09:55 51.15729 -0.17732 208 ft 8 kts 257°
2026-05-04 09:55 51.15714 -0.17843 208 ft 12 kts 258°
2026-05-04 09:55 51.15694 -0.17994 203 ft 16 kts 257°
2026-05-04 09:56 51.15669 -0.18173 207 ft 15 kts 256°
2026-05-04 09:56 51.15652 -0.18299 205 ft 8 kts 258°
2026-05-04 09:56 51.15613 -0.18354 206 ft 9 kts 181°
2026-05-04 09:56 51.15550 -0.18332 203 ft 9 kts 168°
2026-05-04 09:57 51.15511 -0.18318 214 ft 0 kts 165°
2026-05-04 09:57 51.15498 -0.18313 210 ft 4 kts 167°
2026-05-04 09:57 51.15457 -0.18300 212 ft 8 kts 168°
2026-05-04 09:57 51.15389 -0.18276 203 ft 12 kts 167°
2026-05-04 09:58 51.15298 -0.18244 208 ft 14 kts 168°
2026-05-04 09:58 51.15213 -0.18227 204 ft 13 kts 194°
2026-05-04 09:58 51.15187 -0.18312 214 ft 10 kts 257°
2026-05-04 10:00 51.14999 -0.19260 210 ft 10 kts 175°
2026-05-04 10:00 51.14956 -0.19331 217 ft 11 kts 258°
2026-05-04 10:02 51.14793 -0.20511 208 ft 15 kts 258°
2026-05-04 10:04 51.14625 -0.21315 209 ft 7 kts 172°
2026-05-04 10:04 51.14561 -0.21294 209 ft 12 kts 153°
2026-05-04 10:04 51.14524 -0.21053 205 ft 29 kts 59°
2026-05-04 10:04 51.14574 -0.20694 205 ft 52 kts 72°
2026-05-04 10:05 51.14711 -0.19795 205 ft 113 kts 77°
2026-05-04 10:05 51.14918 -0.18319 218 ft 157 kts 75°
2026-05-04 10:05 51.15152 -0.16651 833 ft 153 kts 76°
2026-05-04 10:05 51.15422 -0.14948 1375 ft 163 kts 75°
2026-05-04 10:06 51.15726 -0.13172 1940 ft 167 kts 75°
2026-05-04 10:06 51.15989 -0.11359 2244 ft 190 kts 78°
2026-05-04 10:06 51.16179 -0.09089 2397 ft 224 kts 92°
2026-05-04 10:08 51.08090 -0.02452 5999 ft 269 kts 171°
2026-05-04 10:08 51.06416 -0.01942 5991 ft 270 kts 167°
2026-05-04 10:08 51.04586 -0.01214 5996 ft 267 kts 165°
2026-05-04 10:08 51.02784 -0.00399 6202 ft 271 kts 164°
2026-05-04 10:09 51.00970 0.00463 7025 ft 271 kts 164°
2026-05-04 10:09 50.99171 0.01327 8159 ft 272 kts 164°
2026-05-04 10:09 50.97338 0.02201 9142 ft 278 kts 165°
2026-05-04 10:09 50.95475 0.03084 10136 ft 282 kts 165°
2026-05-04 10:10 50.93608 0.03965 11053 ft 285 kts 165°
2026-05-04 10:10 50.91665 0.04880 11982 ft 290 kts 165°
2026-05-04 10:10 50.89741 0.05785 12900 ft 294 kts 165°
2026-05-04 10:10 50.87769 0.06713 13821 ft 298 kts 165°
2026-05-04 10:11 50.85768 0.07652 14643 ft 301 kts 165°
2026-05-04 10:11 50.83746 0.08601 15463 ft 305 kts 165°
2026-05-04 10:11 50.81700 0.09560 16286 ft 308 kts 165°
2026-05-04 10:11 50.79649 0.10519 17094 ft 312 kts 165°
2026-05-04 10:12 50.77545 0.11429 17909 ft 315 kts 171°
2026-05-04 10:12 50.75357 0.11701 18645 ft 317 kts 184°
2026-05-04 10:12 50.73175 0.11190 19354 ft 319 kts 194°
2026-05-04 10:12 50.70964 0.10361 19665 ft 336 kts 194°
2026-05-04 10:13 50.68617 0.09495 19850 ft 356 kts 193°
2026-05-04 10:13 50.66142 0.08593 20077 ft 372 kts 193°
2026-05-04 10:13 50.63603 0.07674 20736 ft 374 kts 193°
2026-05-04 10:13 50.61073 0.06762 21539 ft 374 kts 193°
2026-05-04 10:14 50.58520 0.05842 22191 ft 378 kts 193°
2026-05-04 10:14 50.55949 0.04916 22859 ft 380 kts 193°
2026-05-04 10:16 50.37650 -0.01656 26966 ft 391 kts 193°
2026-05-04 10:16 50.34999 -0.02604 27506 ft 391 kts 193°
2026-05-04 10:16 50.32341 -0.03553 28005 ft 393 kts 193°
2026-05-04 10:16 50.29670 -0.04506 28489 ft 394 kts 193°
2026-05-04 10:17 50.26983 -0.05463 28961 ft 396 kts 193°
2026-05-04 10:17 50.24281 -0.06335 29402 ft 398 kts 188°
2026-05-04 10:19 50.05192 0.01918 31703 ft 421 kts 168°
2026-05-04 10:19 50.02353 0.03024 32153 ft 420 kts 168°
2026-05-04 10:19 49.99520 0.04134 32585 ft 420 kts 168°
2026-05-04 10:19 49.96687 0.05245 32989 ft 419 kts 168°
2026-05-04 10:20 49.93851 0.06358 33396 ft 419 kts 167°
2026-05-04 10:20 49.91066 0.07451 33799 ft 418 kts 167°
2026-05-04 10:20 49.88247 0.08556 34163 ft 418 kts 167°
2026-05-04 10:20 49.85421 0.09662 34429 ft 419 kts 167°
2026-05-04 10:21 49.82588 0.10770 34681 ft 421 kts 167°
2026-05-04 10:21 49.79748 0.11880 34918 ft 422 kts 168°
2026-05-04 10:21 49.74053 0.14101 35004 ft 421 kts 168°
2026-05-04 10:22 49.65553 0.17424 35024 ft 420 kts 167°
2026-05-04 10:23 49.59887 0.19719 35013 ft 420 kts 167°
2026-05-04 10:25 49.37264 0.28799 35016 ft 421 kts 167°
2026-05-04 10:25 49.31591 0.31059 35024 ft 421 kts 167°
2026-05-04 10:26 49.25927 0.33401 35013 ft 422 kts 166°
2026-05-04 10:26 49.20269 0.35815 34972 ft 422 kts 166°
2026-05-04 10:27 49.14610 0.38207 34980 ft 422 kts 167°
2026-05-04 10:27 49.08948 0.40583 34973 ft 422 kts 167°
2026-05-04 10:28 49.03276 0.42957 34978 ft 422 kts 167°
2026-05-04 10:28 48.97625 0.45316 34970 ft 417 kts 167°
2026-05-04 10:29 48.92051 0.47637 34972 ft 418 kts 167°
2026-05-04 10:29 48.86482 0.49951 34970 ft 418 kts 167°
2026-05-04 10:30 48.80877 0.52274 34966 ft 417 kts 167°
2026-05-04 10:30 48.75270 0.54550 34967 ft 417 kts 167°
2026-05-04 10:31 48.69641 0.56738 34963 ft 417 kts 167°
2026-05-04 10:32 48.50952 0.64023 34953 ft 417 kts 167°
2026-05-04 10:33 48.45383 0.66289 34956 ft 417 kts 167°
2026-05-04 10:33 48.39777 0.68584 34949 ft 417 kts 167°
2026-05-04 10:34 48.34167 0.70862 34952 ft 418 kts 167°
2026-05-04 10:34 48.28553 0.73132 34953 ft 418 kts 167°
2026-05-04 10:35 48.22936 0.75390 34954 ft 418 kts 167°
2026-05-04 10:35 48.17330 0.77594 34958 ft 418 kts 167°
2026-05-04 10:36 48.11707 0.79797 34958 ft 418 kts 167°
2026-05-04 10:36 48.06084 0.82000 34957 ft 418 kts 167°
2026-05-04 10:37 48.00460 0.84201 34956 ft 418 kts 167°
2026-05-04 10:37 47.94848 0.86390 34948 ft 413 kts 167°
2026-05-04 10:39 47.75392 0.93949 34950 ft 414 kts 168°
2026-05-04 10:40 47.69810 0.96106 34949 ft 414 kts 168°
2026-05-04 10:40 47.64237 0.98255 34944 ft 414 kts 168°
2026-05-04 10:41 47.58669 1.00397 34940 ft 413 kts 168°
2026-05-04 10:41 47.53103 1.02535 34940 ft 413 kts 168°
2026-05-04 10:42 47.47533 1.04668 34943 ft 414 kts 168°
2026-05-04 10:42 47.41897 1.06251 34945 ft 412 kts 177°
2026-05-04 10:43 47.36177 1.06312 34962 ft 410 kts 182°
2026-05-04 10:45 47.13377 1.05753 34957 ft 409 kts 182°
2026-05-04 10:45 47.07708 1.05620 35119 ft 411 kts 182°
2026-05-04 10:45 47.04848 1.05553 35402 ft 412 kts 182°
2026-05-04 10:46 47.01980 1.05486 35664 ft 412 kts 182°
2026-05-04 10:46 46.99112 1.05385 35917 ft 413 kts 183°
2026-05-04 10:46 46.96235 1.05255 36152 ft 414 kts 183°
2026-05-04 10:46 46.93335 1.05118 36295 ft 418 kts 184°
2026-05-04 10:47 46.90426 1.04986 36546 ft 418 kts 184°
2026-05-04 10:47 46.87515 1.04857 36793 ft 419 kts 184°
2026-05-04 10:47 46.84605 1.04731 37036 ft 419 kts 184°
2026-05-04 10:47 46.81680 1.04606 37271 ft 420 kts 184°
2026-05-04 10:49 46.61199 1.03738 38738 ft 423 kts 184°
2026-05-04 10:49 46.58252 1.03614 38894 ft 423 kts 184°
2026-05-04 10:50 46.55302 1.03514 38942 ft 424 kts 182°
2026-05-04 10:51 46.34944 1.08909 38943 ft 427 kts 170°
2026-05-04 10:52 46.32054 1.09874 38952 ft 426 kts 170°
2026-05-04 10:52 46.26283 1.11793 38950 ft 427 kts 170°
2026-05-04 10:54 46.03140 1.19452 38960 ft 428 kts 171°
2026-05-04 10:56 45.80022 1.27038 38966 ft 426 kts 171°
2026-05-04 10:57 45.74249 1.28922 38965 ft 426 kts 171°
2026-05-04 10:57 45.68472 1.30804 38954 ft 425 kts 171°
2026-05-04 10:58 45.62702 1.32678 38954 ft 425 kts 171°
2026-05-04 10:58 45.56925 1.34552 38945 ft 425 kts 171°
2026-05-04 10:59 45.51182 1.36412 38949 ft 422 kts 171°
2026-05-04 10:59 45.45447 1.38263 38949 ft 423 kts 171°
2026-05-04 11:00 45.39713 1.40109 38953 ft 422 kts 171°
2026-05-04 11:02 45.16837 1.47444 38961 ft 421 kts 171°
2026-05-04 11:05 44.74162 1.60965 38950 ft 419 kts 172°
2026-05-04 11:06 44.68495 1.62746 38952 ft 419 kts 172°
2026-05-04 11:06 44.62794 1.64532 38953 ft 420 kts 172°
2026-05-04 11:10 44.22808 1.76387 38964 ft 419 kts 175°
2026-05-04 11:12 43.99856 1.81440 38954 ft 418 kts 176°
2026-05-04 11:12 43.94118 1.82565 38957 ft 416 kts 180°
2026-05-04 11:13 43.88359 1.83117 38954 ft 415 kts 180°
2026-05-04 11:13 43.82600 1.83665 38963 ft 415 kts 180°
2026-05-04 11:14 43.76840 1.84222 38961 ft 414 kts 180°
2026-05-04 11:16 43.53876 1.86441 38976 ft 415 kts 181°
2026-05-04 11:16 43.48124 1.86994 38960 ft 414 kts 181°
2026-05-04 11:17 43.42375 1.87545 38965 ft 414 kts 181°
2026-05-04 11:19 43.20403 1.89647 38954 ft 413 kts 181°
2026-05-04 11:19 43.14663 1.90195 38963 ft 413 kts 181°
2026-05-04 11:20 43.09067 1.90728 38951 ft 413 kts 181°
2026-05-04 11:20 43.06201 1.91000 38730 ft 413 kts 181°
2026-05-04 11:20 43.03344 1.91273 38476 ft 408 kts 181°
2026-05-04 11:22 42.83620 1.93143 34847 ft 413 kts 182°
2026-05-04 11:22 42.80754 1.93415 34077 ft 413 kts 182°
2026-05-04 11:23 42.77879 1.93684 33175 ft 416 kts 182°
2026-05-04 11:23 42.74996 1.93956 32447 ft 413 kts 182°
2026-05-04 11:24 42.58085 1.96547 28611 ft 395 kts 178°
2026-05-04 11:25 42.55380 1.97095 28039 ft 391 kts 178°
2026-05-04 11:25 42.52701 1.97634 27471 ft 387 kts 177°
2026-05-04 11:25 42.50045 1.98167 26912 ft 384 kts 177°
2026-05-04 11:26 42.44788 1.99220 25777 ft 379 kts 177°
2026-05-04 11:27 42.26941 2.02023 21776 ft 358 kts 180°
2026-05-04 11:28 42.24476 2.02320 21231 ft 354 kts 179°
2026-05-04 11:28 42.22025 2.02615 20673 ft 351 kts 179°
2026-05-04 11:28 42.19599 2.02904 20117 ft 348 kts 179°
2026-05-04 11:28 42.17191 2.03190 19575 ft 346 kts 179°
2026-05-04 11:29 42.14799 2.03476 19033 ft 344 kts 179°
2026-05-04 11:29 42.12416 2.03764 18476 ft 343 kts 178°
2026-05-04 11:29 42.10072 2.04046 17925 ft 342 kts 178°
2026-05-04 11:29 42.07729 2.04328 17387 ft 339 kts 178°
2026-05-04 11:31 41.91731 2.06245 13816 ft 323 kts 178°
2026-05-04 11:33 41.76538 2.08052 10430 ft 305 kts 178°
2026-05-04 11:33 41.74455 2.08299 10213 ft 294 kts 177°
2026-05-04 11:33 41.72459 2.08539 10083 ft 282 kts 177°
2026-05-04 11:34 41.70544 2.08769 9801 ft 276 kts 177°
2026-05-04 11:34 41.68683 2.08991 9667 ft 271 kts 177°
2026-05-04 11:34 41.66787 2.09215 9551 ft 274 kts 178°
2026-05-04 11:34 41.64892 2.09440 9430 ft 273 kts 177°
2026-05-04 11:35 41.63003 2.09663 9224 ft 272 kts 177°
2026-05-04 11:35 41.61116 2.09888 9004 ft 272 kts 177°
2026-05-04 11:35 41.59248 2.10109 8782 ft 272 kts 177°
2026-05-04 11:35 41.57364 2.10333 8542 ft 271 kts 177°
2026-05-04 11:36 41.55487 2.10589 8336 ft 272 kts 171°
2026-05-04 11:36 41.53750 2.11605 8112 ft 278 kts 145°
2026-05-04 11:36 41.52508 2.13577 7889 ft 286 kts 119°
2026-05-04 11:36 41.52068 2.15487 7778 ft 287 kts 98°
2026-05-04 11:37 41.52070 2.18119 7750 ft 280 kts 89°
2026-05-04 11:37 41.52188 2.20710 7759 ft 281 kts 86°
2026-05-04 11:37 41.52304 2.23287 7639 ft 280 kts 98°
2026-05-04 11:37 41.51738 2.25693 7524 ft 261 kts 126°
2026-05-04 11:38 41.50514 2.27302 7325 ft 246 kts 154°
2026-05-04 11:38 41.48963 2.28249 6977 ft 245 kts 161°
2026-05-04 11:38 41.47381 2.29101 6639 ft 245 kts 155°
2026-05-04 11:38 41.46105 2.30615 6291 ft 251 kts 126°
2026-05-04 11:39 41.45547 2.32811 6017 ft 252 kts 94°
2026-05-04 11:39 41.45872 2.35089 5961 ft 258 kts 68°
2026-05-04 11:40 41.50720 2.47729 4314 ft 246 kts 65°
2026-05-04 11:41 41.51432 2.49815 4151 ft 251 kts 65°
2026-05-04 11:41 41.52148 2.51922 3976 ft 246 kts 65°
2026-05-04 11:41 41.52830 2.53931 3971 ft 229 kts 65°
2026-05-04 11:41 41.53457 2.55773 3973 ft 213 kts 65°
2026-05-04 11:42 41.54054 2.57514 3968 ft 204 kts 64°
2026-05-04 11:42 41.54671 2.59294 3983 ft 215 kts 64°
2026-05-04 11:42 41.55299 2.61102 3978 ft 214 kts 64°
2026-05-04 11:42 41.55919 2.62881 3977 ft 210 kts 64°
2026-05-04 11:43 41.56291 2.64695 3976 ft 202 kts 95°
2026-05-04 11:43 41.55826 2.66462 4105 ft 204 kts 129°
2026-05-04 11:43 41.54734 2.67528 4058 ft 187 kts 168°
2026-05-04 11:43 41.53535 2.67619 3975 ft 164 kts 198°
2026-05-04 11:44 41.52572 2.67006 3871 ft 148 kts 222°
2026-05-04 11:44 41.51950 2.65982 3747 ft 139 kts 244°
2026-05-04 11:44 41.51519 2.64867 3611 ft 135 kts 243°
2026-05-04 11:44 41.51065 2.63761 3501 ft 134 kts 243°
2026-05-04 11:45 41.50614 2.62678 3365 ft 138 kts 242°
2026-05-04 11:45 41.50148 2.61558 3234 ft 134 kts 242°
2026-05-04 11:45 41.49685 2.60440 3123 ft 140 kts 241°
2026-05-04 11:45 41.49218 2.59313 2991 ft 136 kts 241°
2026-05-04 11:46 41.48767 2.58223 2864 ft 137 kts 241°
2026-05-04 11:46 41.48301 2.57098 2750 ft 138 kts 242°
2026-05-04 11:46 41.47844 2.55995 2622 ft 133 kts 242°
2026-05-04 11:46 41.47386 2.54888 2489 ft 137 kts 242°
2026-05-04 11:47 41.46937 2.53809 2340 ft 130 kts 242°
2026-05-04 11:47 41.46494 2.52730 2290 ft 132 kts 242°
2026-05-04 11:47 41.46036 2.51618 2283 ft 137 kts 242°
2026-05-04 11:47 41.45581 2.50513 2288 ft 137 kts 242°
2026-05-04 11:48 41.45127 2.49418 2265 ft 131 kts 242°
2026-05-04 11:48 41.44684 2.48350 2274 ft 132 kts 242°
2026-05-04 11:48 41.44241 2.47278 2271 ft 132 kts 242°
2026-05-04 11:48 41.43800 2.46210 2276 ft 133 kts 241°
2026-05-04 11:49 41.43355 2.45131 2288 ft 136 kts 241°
2026-05-04 11:49 41.42903 2.44042 2275 ft 130 kts 241°
2026-05-04 11:49 41.42461 2.42976 2276 ft 135 kts 241°
2026-05-04 11:49 41.42001 2.41869 2298 ft 138 kts 241°
2026-05-04 11:50 41.41546 2.40767 2289 ft 136 kts 241°
2026-05-04 11:50 41.41048 2.39724 2272 ft 129 kts 232°
2026-05-04 11:50 41.40464 2.38770 2279 ft 133 kts 234°
2026-05-04 11:50 41.39960 2.37740 2302 ft 137 kts 240°
2026-05-04 11:51 41.39524 2.36610 2279 ft 134 kts 245°
2026-05-04 11:51 41.39132 2.35470 2299 ft 137 kts 245°
2026-05-04 11:51 41.38742 2.34324 2288 ft 136 kts 246°
2026-05-04 11:51 41.38349 2.33169 2283 ft 138 kts 246°
2026-05-04 11:52 41.37958 2.32021 2283 ft 135 kts 245°
2026-05-04 11:52 41.37564 2.30864 2286 ft 134 kts 245°
2026-05-04 11:52 41.37186 2.29756 2283 ft 134 kts 246°
2026-05-04 11:52 41.36795 2.28605 2285 ft 138 kts 245°
2026-05-04 11:53 41.36401 2.27452 2303 ft 139 kts 245°
2026-05-04 11:53 41.36006 2.26294 2302 ft 139 kts 245°
2026-05-04 11:53 41.35613 2.25138 2300 ft 128 kts 244°
2026-05-04 11:53 41.35259 2.24102 2223 ft 127 kts 245°
2026-05-04 11:55 41.32629 2.16489 1960 ft 171 kts 243°
2026-05-04 11:55 41.32160 2.15008 2349 ft 170 kts 244°
2026-05-04 11:56 41.31662 2.13613 2246 ft 156 kts 245°
2026-05-04 11:56 41.31210 2.12344 1447 ft 163 kts 244°
2026-05-04 11:56 41.30833 2.11157 678 ft 172 kts 245°
2026-05-04 11:56 41.30482 2.10102 139 ft 172 kts 244°
2026-05-04 11:57 41.30003 2.08838 17 ft 132 kts 230°
2026-05-04 11:57 41.29821 2.08181 18 ft 96 kts 246°
2026-05-04 11:57 41.29581 2.07619 18 ft 58 kts 238°
2026-05-04 11:57 41.29532 2.07395 21 ft 46 kts 257°
2026-05-04 11:58 41.29443 2.07199 18 ft 15 kts 204°
2026-05-04 11:58 41.29402 2.07212 20 ft 6 kts 155°
2026-05-04 11:58 41.29358 2.07236 18 ft 9 kts 159°
2026-05-04 11:58 41.29337 2.07309 18 ft 10 kts 75°
2026-05-04 11:59 41.29364 2.07400 20 ft 13 kts 59°
2026-05-04 11:59 41.29393 2.07501 18 ft 11 kts 95°
2026-05-04 11:59 41.29338 2.07560 18 ft 12 kts 174°
2026-05-04 11:59 41.29277 2.07593 18 ft 1 kts 148°
2026-05-04 12:00 41.29260 2.07609 20 ft 5 kts 146°
2026-05-04 12:00 41.29216 2.07638 18 ft 7 kts 158°
2026-05-04 12:01 41.29190 2.07650 18 ft 0 kts 159°
2026-05-04 12:01 41.29180 2.07661 18 ft 4 kts 144°
2026-05-04 12:02 41.29054 2.07686 19 ft 0 kts 154°